"Pseudo-MPEC" for P10HL8W

Created 2018 Jun 18 9:18:16 UT using Find_Orb

Click here for an explanation of pseudo-MPECs

 
 Astrometry: 
     P10HL8W  C2018 06 12geAstrometryO\:_xTh=pE-DRD[.r15/f@85/W6wEVL[peZJ.Q@SF51
     P10HL8W  C2018 06 128_\mTe]=+y^Dhm!%jredacted;5p\+5pseeUCGPP_H6u))B@FM@*F51
     P10HL8W  C2018 06 12qbwMAAMVkca'3qJZ!!sI7HtQH;Ru5\Gw4Ns/UO!?7(RbRgcNEOCPF51
     P10HL8W ^C2018 06 13.61502421 44 04.035-39 02 35.31         19.48GVNEOCP568
     P10HL8W ^C2018 06 13.61597021 44 04.526-39 02 35.96         19.52GVNEOCP568
     P10HL8W ^C2018 06 13.61691621 44 05.021-39 02 36.59         19.54GVNEOCP568
     P10HL8W ^C2018 06 15.58650422 02 17.919-39 20 27.31         19.44GVNEOCP568
     P10HL8W ^C2018 06 15.58744922 02 18.442-39 20 27.73         19.52GVNEOCP568
     P10HL8W ^C2018 06 15.58839422 02 18.956-39 20 28.07         19.49GVNEOCP568
     P10HL8W ^C2018 06 15.58939822 02 19.513-39 20 28.51         19.50GVNEOCP568
     P10HL8W ^C2018 06 15.59034222 02 20.030-39 20 28.94         19.51GVNEOCP568
     P10HL8W ^C2018 06 15.59128822 02 20.544-39 20 29.33         19.50GVNEOCP568

Station data:
(568) Mauna Kea  (N19.826116 W155.472200)  US/Hawaii.
(F51) Pan-STARRS 1, Haleakala  (N20.707235 W156.255910)  US/Hawaii.
   Observers N. Primak, A. Schultz, S. Watters, J. Thiel, T. Goggia. Measurer
   PS1 Science Consortium. 1.8-m Ritchey-Chrétien + CCD.

Orbital elements:  P10HL8W
   Perihelion 2018 Aug 5.683798 +/- 2.03 TT = 16:24:40 (JD 2458336.183798)
Epoch 2018 Jun 15.0 TT = JDT 2458284.5   Earth MOID: 0.1130   Ma: 0.0014
M 340.12210 +/- 5.3                 (J2000 ecliptic)          AutoNEOCP
n   0.38460591 +/- 0.0952           Peri.  276.78264 +/- 2.4
a   1.87265916 +/- 0.309            Node    51.46152 +/- 1.8
e   0.4679805 +/- 0.0847            Incl.    7.48962 +/- 0.9
P   2.56/936.01d           H 20.8   G  0.15   U 11.2  
q 0.99629114 +/- 0.0068    Q 2.74902718 +/- 0.732
From 12 observations 2018 June 12-15; mean residual 0".04
Residuals in arcseconds: 
180612 F51  .01-  .06+    180613 568  .02-  .05-    180615 568  .02-  .04+    
180612 F51  .05+  .01-    180613 568  .01+  .05-    180615 568  .03+  .03+    
180612 F51  .03-  .04+    180615 568  .03+  .01-    180615 568  .00   .00     
180613 568  .01-  .04-    180615 568  .06+  .02-    180615 568  .08-  .01+    

Ephemerides (geocentric):
Date (UTC) HH   RA              Dec         delta   r     elong  mag " sig PA
---- -- -- --  -------------   -----------  ------ ------ -----  --- ---- ---
2018 06 18 09  22 29 38.683   -39 27 44.01  .22182 1.1402 119.0 19.7  6.2 125
2018 06 18 10  22 30 03.939   -39 27 40.45  .22169 1.1400 119.0 19.7  6.2 125
2018 06 18 11  22 30 29.214   -39 27 36.56  .22156 1.1398 118.9 19.7  6.3 124
2018 06 18 12  22 30 54.508   -39 27 32.33  .22143 1.1395 118.9 19.7  6.3 124
2018 06 18 13  22 31 19.821   -39 27 27.77  .22130 1.1393 118.8 19.7  6.4 123
2018 06 18 14  22 31 45.153   -39 27 22.88  .22117 1.1391 118.8 19.7  6.4 122
2018 06 18 15  22 32 10.503   -39 27 17.65  .22104 1.1389 118.7 19.7  6.5 122
2018 06 18 16  22 32 35.871   -39 27 12.08  .22091 1.1387 118.7 19.7  6.6 121
2018 06 18 17  22 33 01.258   -39 27 06.18  .22078 1.1384 118.6 19.7  6.6 121
2018 06 18 18  22 33 26.662   -39 26 59.95  .22065 1.1382 118.6 19.7  6.7 120
2018 06 18 19  22 33 52.085   -39 26 53.37  .22053 1.1380 118.5 19.7  6.7 120
2018 06 18 20  22 34 17.526   -39 26 46.45  .22040 1.1378 118.5 19.7  6.8 119
2018 06 18 21  22 34 42.984   -39 26 39.20  .22027 1.1376 118.4 19.7  6.9 119
2018 06 18 22  22 35 08.460   -39 26 31.60  .22015 1.1373 118.4 19.7  6.9 118
2018 06 18 23  22 35 33.954   -39 26 23.67  .22002 1.1371 118.3 19.7  7.0 117
2018 06 19 00  22 35 59.465   -39 26 15.39  .21990 1.1369 118.3 19.7  7.0 117
2018 06 19 01  22 36 24.993   -39 26 06.77  .21977 1.1367 118.2 19.7  7.1 116
2018 06 19 02  22 36 50.538   -39 25 57.80  .21965 1.1365 118.2 19.7  7.2 116
2018 06 19 03  22 37 16.100   -39 25 48.49  .21952 1.1362 118.1 19.7  7.2 116
2018 06 19 04  22 37 41.679   -39 25 38.84  .21940 1.1360 118.1 19.7  7.3 115
2018 06 19 05  22 38 07.275   -39 25 28.83  .21928 1.1358 118.0 19.7  7.3 115
2018 06 19 06  22 38 32.887   -39 25 18.49  .21916 1.1356 118.0 19.7  7.4 114
2018 06 19 07  22 38 58.516   -39 25 07.79  .21903 1.1354 118.0 19.7  7.5 114
2018 06 19 08  22 39 24.161   -39 24 56.75  .21891 1.1351 117.9 19.7  7.5 113
2018 06 19 09  22 39 49.822   -39 24 45.36  .21879 1.1349 117.9 19.7  7.6 113
2018 06 19 10  22 40 15.499   -39 24 33.62  .21867 1.1347 117.8 19.7  7.6 112
2018 06 19 11  22 40 41.193   -39 24 21.53  .21855 1.1345 117.8 19.7  7.7 112
2018 06 19 12  22 41 06.901   -39 24 09.09  .21843 1.1343 117.7 19.7  7.8 112
2018 06 19 13  22 41 32.626   -39 23 56.29  .21831 1.1341 117.7 19.7  7.8 111
2018 06 19 14  22 41 58.366   -39 23 43.15  .21819 1.1338 117.6 19.7  7.9 111
2018 06 19 15  22 42 24.121   -39 23 29.65  .21807 1.1336 117.6 19.7  7.9 110
2018 06 19 16  22 42 49.892   -39 23 15.79  .21796 1.1334 117.5 19.7  8.0 110
2018 06 19 17  22 43 15.678   -39 23 01.59  .21784 1.1332 117.5 19.7  8.0 110
2018 06 19 18  22 43 41.478   -39 22 47.03  .21772 1.1330 117.4 19.7  8.1 109
2018 06 19 19  22 44 07.294   -39 22 32.11  .21760 1.1328 117.4 19.7  8.2 109
2018 06 19 20  22 44 33.124   -39 22 16.83  .21749 1.1325 117.3 19.7  8.2 109
2018 06 19 21  22 44 58.968   -39 22 01.20  .21737 1.1323 117.3 19.7  8.3 108
2018 06 19 22  22 45 24.827   -39 21 45.22  .21726 1.1321 117.2 19.7  8.3 108
2018 06 19 23  22 45 50.701   -39 21 28.87  .21714 1.1319 117.2 19.7  8.4 108
2018 06 20 00  22 46 16.588   -39 21 12.16  .21703 1.1317 117.1 19.7  8.4 107
2018 06 20 01  22 46 42.489   -39 20 55.10  .21691 1.1314 117.1 19.7  8.5 107
2018 06 20 02  22 47 08.404   -39 20 37.67  .21680 1.1312 117.0 19.7  8.5 107
2018 06 20 03  22 47 34.333   -39 20 19.89  .21669 1.1310 117.0 19.7  8.6 106
2018 06 20 04  22 48 00.275   -39 20 01.74  .21657 1.1308 116.9 19.7  8.6 106
2018 06 20 05  22 48 26.230   -39 19 43.23  .21646 1.1306 116.9 19.7  8.7 106
2018 06 20 06  22 48 52.199   -39 19 24.36  .21635 1.1304 116.8 19.7  8.7 105
2018 06 20 07  22 49 18.180   -39 19 05.12  .21624 1.1302 116.8 19.7  8.8 105
2018 06 20 08  22 49 44.175   -39 18 45.52  .21613 1.1299 116.7 19.7  8.8 105